Temp
-15 -15 -16 -16 -16 -16 -16 -16 -15 -15 -15 -15 -15 -16 -15 -15 -15 -15 -15 -15 -15 -15 -15 -15 -15 -14 -15 -15 -15 -15 -15 -15 -15 -15 -15 -15 -14 -14 -14 -14 -14 -15
-16 -16 -16 -16 -16 -16 -16 -16 -15 -15 -15 -15 -16 -16 -15 -15 -15 -15 -15 -15 -15 -15 -15 -15 -15 -15 -15 -15 -15 -15 -15 -15 -15 -15 -15 -15 -15 -15 -15 -15 -15 -15
-16 -16 -16 -16 -16 -16 -16 -16 -15 -15 -15 -15 -16 -16 -15 -15 -15 -15 -15 -15 -15 -15 -15 -15 -15 -15 -15 -15 -15 -15 -15 -15 -15 -15 -15 -15 -15 -15 -15 -15 -15 -15
-16 -16 -16 -16 -16 -16 -16 -16 -16 -15 -15 -15 -16 -16 -16 -15 -15 -16 -15 -15 -15 -15 -15 -15 -15 -15 -15 -15 -15 -15 -15 -15 -15 -15 -15 -15 -15 -15 -15 -15 -15 -15
-15 -15 -15 -15 -15 -16 -16 -16 -16 -15 -15 -15 -15 -15 -15 -15 -15 -16 -16 -15 -15 -15 -15 -15 -15 -15 -15 -15 -15 -15 -15 -15 -15 -15 -15 -15 -15 -15 -15 -15 -15 -15
-15 -15 -15 -15 -15 -15 -16 -16 -16 -15 -15 -15 -15 -15 -15 -15 -15 -16 -16 -16 -15 -15 -15 -15 -15 -15 -15 -15 -14 -14 -15 -15 -15 -15 -15 -15 -15 -15 -15 -15 -15 -15
-16 -16 -16 -16 -16 -16 -16 -16 -16 -15 -15 -15 -15 -15 -15 -15 -16 -16 -16 -16 -16 -15 -15 -15 -15 -15 -15 -15 -14 -14 -14 -15 -15 -15 -15 -15 -15 -15 -15 -15 -15 -15
-15 -16 -16 -16 -16 -16 -16 -16 -16 -15 -15 -15 -15 -15 -15 -15 -16 -16 -16 -16 -16 -16 -15 -15 -15 -15 -15 -15 -15 -14 -14 -15 -15 -15 -15 -15 -15 -15 -15 -15 -15 -15
-15 -16 -16 -16 -16 -16 -16 -16 -16 -16 -15 -15 -15 -15 -16 -16 -16 -16 -16 -16 -16 -16 -15 -15 -15 -15 -15 -15 -15 -15 -15 -15 -15 -15 -15 -15 -15 -15 -15 -15 -15 -15
-16 -16 -16 -16 -16 -16 -16 -16 -16 -16 -15 -15 -15 -15 -16 -16 -16 -16 -16 -16 -16 -16 -15 -15 -15 -15 -15 -15 -15 -15 -15 -15 -15 -15 -15 -15 -15 -15 -15 -15 -16 -16
-16 -16 -16 -16 -16 -16 -16 -16 -16 -16 -15 -15 -15 -15 -16 -16 -16 -16 -16 -16 -16 -16 -16 -16 -16 -16 -16 -16 -16 -16 -15 -15 -15 -15 -15 -15 -15 -16 -16 -16 -16 -16
-16 -16 -16 -16 -16 -16 -16 -16 -16 -16 -16 -15 -16 -16 -16 -16 -16 -16 -16 -16 -16 -16 -16 -16 -16 -16 -16 -16 -16 -16 -16 -16 -16 -16 -16 -16 -16 -16 -16 -16 -16 -16
-16 -16 -16 -16 -16 -16 -16 -16 -16 -16 -16 -16 -16 -16 -16 -16 -16 -16 -16 -16 -16 -16 -16 -16 -17 -17 -17 -16 -16 -16 -16 -16 -16 -16 -16 -16 -16 -16 -16 -16 -16 -16
-16 -16 -16 -16 -16 -16 -16 -16 -16 -16 -16 -16 -16 -16 -16 -16 -16 -16 -16 -16 -16 -16 -17 -17 -17 -17 -17 -17 -17 -17 -16 -16 -16 -16 -16 -16 -16 -16 -16 -16 -16 -16
-16 -16 -16 -16 -16 -16 -16 -16 -16 -16 -16 -16 -16 -16 -16 -16 -16 -16 -16 -16 -17 -17 -17 -17 -17 -17 -17 -17 -17 -17 -16 -17 -17 -17 -17 -17 -16 -16 -16 -17 -17 -17
-16 -16 -16 -15 -15 -16 -16 -16 -15 -15 -16 -16 -16 -16 -16 -16 -16 -16 -16 -17 -17 -17 -17 -17 -17 -17 -17 -17 -17 -17 -17 -17 -17 -17 -17 -17 -17 -17 -17 -17 -17 -17
-16 -16 -16 -16 -16 -16 -16 -16 -16 -15 -16 -16 -16 -16 -16 -16 -16 -16 -16 -17 -17 -17 -17 -17 -17 -17 -17 -17 -17 -17 -17 -18 -17 -17 -17 -17 -17 -17 -17 -17 -17 -17
-16 -16 -16 -16 -16 -16 -16 -16 -16 -16 -16 -16 -16 -16 -16 -16 -16 -16 -16 -17 -17 -17 -17 -17 -17 -17 -17 -17 -18 -18 -18 -18 -18 -18 -18 -18 -18 -18 -18 -18 -18 -18
-16 -16 -16 -16 -16 -16 -16 -16 -16 -16 -16 -16 -16 -16 -16 -17 -17 -17 -17 -17 -17 -17 -17 -17 -17 -17 -17 -18 -18 -18 -18 -18 -18 -18 -18 -18 -18 -18 -18 -18 -18 -18
-16 -16 -16 -16 -16 -16 -16 -16 -16 -16 -16 -17 -17 -17 -17 -17 -17 -17 -17 -17 -17 -17 -18 -18 -18 -18 -18 -18 -18 -18 -18 -18 -18 -18 -18 -18 -18 -18 -18 -18 -18 -18
-16 -16 -16 -16 -16 -16 -16 -16 -16 -16 -16 -17 -17 -17 -17 -17 -17 -17 -17 -17 -17 -18 -18 -18 -18 -18 -18 -18 -18 -18 -18 -18 -18 -19 -19 -19 -18 -18 -18 -18 -18 -18
-17 -17 -17 -17 -17 -17 -17 -17 -17 -17 -17 -17 -17 -17 -17 -17 -17 -17 -17 -17 -18 -18 -18 -18 -18 -18 -18 -18 -18 -18 -18 -18 -18 -18 -18 -18 -19 -19 -18 -18 -18 -18
-17 -17 -17 -17 -17 -17 -17 -17 -17 -17 -17 -17 -17 -17 -17 -17 -17 -17 -17 -17 -18 -18 -18 -18 -17 -18 -18 -18 -18 -18 -18 -18 -18 -18 -18 -18 -19 -19 -18 -18 -18 -18
-17 -17 -17 -17 -17 -17 -17 -17 -17 -17 -17 -17 -17 -18 -18 -18 -18 -18 -18 -18 -18 -18 -18 -18 -18 -18 -18 -18 -18 -18 -18 -18 -18 -18 -18 -18 -19 -19 -19 -18 -18 -18
-18 -18 -17 -17 -17 -17 -17 -17 -17 -17 -17 -17 -17 -18 -18 -18 -18 -18 -18 -18 -18 -18 -18 -18 -18 -18 -18 -18 -18 -18 -18 -19 -18 -18 -18 -18 -19 -19 -19 -19 -19 -19
-18 -18 -18 -18 -18 -18 -18 -18 -18 -18 -18 -17 -17 -18 -18 -18 -18 -18 -18 -18 -18 -18 -19 -18 -18 -18 -18 -18 -18 -19 -19 -19 -19 -19 -19 -18 -18 -18 -19 -19 -19 -19
Height
5762 5764 5765 5767 5768 5770 5772 5773 5774 5776 5777 5778 5778 5778 5778 5779 5780 5781 5782 5783 5783 5784 5785 5786 5786 5786 5786 5786 5787 5787 5788 5789 5789 5790 5790 5790 5791 5791 5792 5792 5792 5793
5760 5762 5764 5766 5767 5769 5771 5772 5773 5774 5776 5777 5777 5777 5777 5778 5779 5780 5781 5782 5782 5783 5783 5784 5784 5784 5785 5785 5785 5786 5786 5787 5787 5788 5788 5789 5789 5790 5790 5791 5791 5791
5759 5761 5763 5764 5766 5768 5769 5770 5772 5774 5775 5776 5776 5776 5776 5777 5778 5779 5780 5780 5781 5782 5782 5782 5783 5783 5783 5783 5784 5784 5785 5785 5786 5786 5787 5787 5788 5788 5789 5789 5790 5790
5759 5761 5762 5764 5765 5767 5768 5769 5771 5773 5773 5774 5774 5774 5775 5776 5776 5777 5778 5779 5780 5780 5781 5781 5781 5782 5782 5782 5783 5783 5783 5784 5784 5785 5786 5786 5787 5787 5788 5788 5789 5789
5759 5761 5762 5763 5764 5765 5766 5768 5770 5771 5771 5771 5772 5772 5773 5774 5774 5775 5776 5777 5778 5779 5779 5780 5780 5780 5780 5781 5781 5782 5782 5782 5783 5784 5785 5785 5786 5786 5787 5787 5788 5788
5758 5760 5761 5762 5762 5763 5764 5766 5768 5769 5769 5769 5770 5770 5771 5772 5772 5773 5774 5775 5777 5777 5778 5778 5779 5779 5779 5779 5780 5780 5781 5781 5782 5783 5783 5784 5785 5785 5785 5786 5786 5787
5756 5758 5759 5760 5760 5761 5763 5765 5766 5767 5768 5768 5768 5769 5769 5769 5770 5771 5772 5774 5775 5776 5776 5777 5777 5778 5778 5778 5779 5779 5780 5780 5781 5781 5782 5782 5783 5783 5784 5784 5784 5785
5754 5755 5756 5757 5759 5760 5762 5763 5764 5765 5766 5767 5767 5767 5768 5768 5768 5769 5770 5771 5773 5774 5774 5775 5775 5776 5776 5777 5777 5778 5778 5779 5779 5780 5780 5781 5781 5782 5782 5782 5782 5783
5752 5753 5754 5756 5757 5758 5759 5760 5761 5762 5764 5765 5765 5765 5765 5765 5766 5767 5768 5769 5770 5772 5772 5773 5773 5774 5774 5775 5775 5776 5777 5777 5778 5778 5778 5779 5780 5780 5780 5781 5781 5782
5750 5751 5752 5754 5755 5755 5756 5757 5759 5759 5761 5762 5762 5762 5763 5763 5764 5765 5766 5767 5768 5769 5770 5770 5771 5771 5772 5772 5773 5774 5774 5775 5776 5776 5777 5778 5778 5779 5780 5780 5781 5781
5747 5748 5750 5751 5752 5752 5753 5755 5756 5757 5758 5759 5759 5759 5760 5761 5762 5762 5764 5764 5765 5766 5767 5767 5768 5769 5769 5770 5771 5771 5772 5773 5774 5774 5775 5776 5777 5777 5778 5779 5779 5779
5744 5746 5747 5748 5749 5750 5750 5752 5753 5754 5755 5756 5757 5757 5757 5758 5759 5760 5760 5761 5762 5763 5763 5764 5765 5766 5767 5768 5769 5769 5770 5771 5771 5772 5773 5773 5774 5775 5776 5776 5777 5777
5742 5743 5744 5746 5746 5747 5747 5748 5750 5751 5752 5753 5754 5754 5754 5755 5756 5756 5757 5758 5759 5759 5760 5761 5762 5764 5765 5766 5766 5767 5768 5768 5769 5770 5770 5771 5772 5772 5773 5774 5774 5775
5739 5740 5741 5742 5743 5743 5744 5745 5747 5747 5748 5750 5750 5751 5751 5752 5753 5754 5754 5755 5756 5756 5757 5759 5760 5761 5762 5763 5764 5764 5765 5766 5766 5767 5767 5768 5769 5769 5770 5771 5771 5772
5736 5737 5738 5738 5739 5740 5741 5743 5743 5743 5743 5746 5747 5747 5748 5750 5750 5751 5752 5752 5753 5753 5755 5756 5757 5759 5760 5761 5762 5762 5762 5763 5763 5764 5765 5765 5766 5766 5767 5767 5767 5768
5733 5734 5735 5735 5735 5737 5738 5739 5740 5739 5739 5742 5744 5745 5746 5747 5748 5749 5749 5750 5750 5751 5752 5753 5755 5756 5758 5759 5759 5760 5760 5760 5760 5761 5761 5762 5762 5762 5763 5763 5764 5764
5730 5731 5733 5733 5733 5733 5734 5735 5736 5736 5736 5738 5740 5741 5743 5745 5746 5747 5747 5747 5748 5749 5750 5751 5752 5753 5755 5756 5757 5757 5758 5758 5758 5758 5759 5759 5759 5759 5759 5760 5760 5761
5727 5728 5729 5730 5730 5731 5732 5733 5734 5734 5734 5735 5737 5739 5741 5742 5744 5744 5745 5745 5746 5747 5748 5749 5749 5750 5752 5752 5753 5754 5754 5755 5755 5756 5756 5756 5757 5757 5757 5757 5757 5757
5724 5725 5726 5727 5728 5729 5730 5731 5732 5732 5732 5734 5735 5737 5739 5740 5741 5742 5742 5743 5744 5744 5745 5745 5746 5747 5748 5749 5749 5750 5750 5751 5751 5752 5752 5753 5753 5753 5754 5754 5753 5753
5722 5723 5724 5725 5726 5727 5728 5728 5729 5730 5732 5732 5733 5735 5736 5737 5738 5739 5739 5740 5740 5741 5741 5742 5742 5743 5744 5745 5746 5746 5747 5747 5748 5748 5749 5749 5750 5750 5750 5750 5749 5749
5719 5721 5721 5722 5723 5725 5726 5727 5727 5729 5730 5730 5731 5732 5732 5733 5734 5735 5736 5737 5737 5737 5738 5738 5739 5739 5740 5741 5742 5743 5743 5744 5744 5745 5745 5745 5745 5745 5745 5745 5745 5745
5717 5718 5719 5719 5721 5723 5724 5725 5726 5727 5728 5728 5730 5730 5730 5730 5731 5732 5733 5733 5733 5734 5734 5734 5735 5735 5736 5737 5737 5738 5738 5739 5739 5739 5739 5739 5740 5739 5739 5739 5739 5739
5714 5715 5716 5716 5718 5720 5722 5723 5723 5724 5725 5726 5727 5727 5728 5728 5729 5729 5729 5730 5730 5730 5730 5730 5731 5731 5731 5732 5733 5733 5733 5733 5734 5734 5734 5734 5734 5733 5733 5733 5733 5733
5711 5712 5713 5714 5715 5717 5718 5719 5720 5721 5722 5722 5722 5723 5724 5724 5725 5725 5726 5726 5726 5726 5726 5726 5727 5727 5727 5727 5728 5728 5728 5728 5728 5728 5728 5728 5728 5727 5727 5727 5727 5727
5708 5709 5710 5712 5713 5713 5715 5715 5716 5717 5718 5718 5719 5719 5719 5720 5720 5721 5721 5721 5721 5721 5721 5721 5722 5722 5722 5722 5722 5722 5722 5722 5722 5722 5722 5722 5721 5721 5721 5721 5721 5721
5705 5706 5707 5708 5709 5710 5710 5711 5712 5713 5714 5714 5715 5715 5716 5716 5716 5715 5715 5716 5716 5716 5716 5716 5716 5716 5717 5716 5716 5716 5716 5716 5716 5716 5716 5715 5715 5715 5714 5714 5714 5714
Wind_Speed
28 27 27 27 26 25 23 23 23 20 17 15 16 17 18 17 15 13 13 14 15 14 14 15 15 15 15 14 14 14 14 14 14 14 14 13 12 11 9 8 7 7
28 27 27 27 26 25 24 25 24 20 16 15 17 18 17 16 15 14 14 15 15 15 15 15 15 14 13 13 14 14 15 15 14 15 14 13 11 10 9 8 8 9
27 26 27 26 25 25 26 27 25 20 15 15 16 17 16 16 16 16 16 16 16 15 15 15 15 14 13 13 14 14 14 14 14 14 14 13 12 11 10 10 10 11
26 25 25 24 23 25 26 25 23 20 17 16 17 17 17 16 16 17 17 17 16 15 14 14 14 14 14 13 14 14 14 14 14 14 14 13 13 12 12 12 12 12
22 21 20 19 20 23 22 20 19 18 18 18 17 17 17 17 17 17 18 18 17 16 15 14 14 14 14 14 14 14 14 14 14 14 14 14 13 13 13 13 14 14
17 17 17 17 18 19 19 18 18 17 17 17 17 16 16 17 17 17 18 18 18 18 18 17 16 15 15 14 15 15 15 15 15 14 14 15 15 15 15 15 15 14
16 16 17 18 19 19 18 17 17 16 16 16 15 14 14 15 17 17 18 18 19 20 21 20 19 18 17 16 16 17 17 17 16 16 16 17 17 16 16 16 16 16
16 17 18 18 18 17 17 18 17 16 16 15 14 13 13 13 14 16 18 18 18 19 20 21 21 22 21 21 20 19 19 19 18 18 18 18 18 17 17 17 17 17
17 17 17 17 17 18 19 19 19 18 17 17 16 15 14 13 13 15 17 18 18 17 18 19 21 23 24 25 23 22 21 20 19 19 19 19 18 17 17 17 17 16
16 16 17 17 18 20 21 20 20 20 19 19 18 18 17 15 14 15 18 20 20 20 19 20 21 22 24 25 24 22 21 20 19 19 18 18 18 17 17 16 16 15
17 17 18 19 20 22 23 23 21 22 21 20 20 21 20 18 17 18 19 21 23 22 21 20 20 21 22 23 22 21 20 19 19 18 18 18 18 17 16 16 16 16
19 19 20 20 22 24 26 25 24 23 23 23 23 23 23 21 19 19 20 21 22 22 21 20 20 20 20 20 20 19 19 18 18 18 18 18 17 17 17 17 17 17
23 22 21 21 22 25 28 29 29 26 25 24 25 25 23 21 21 20 20 21 21 21 20 20 19 19 20 20 19 19 18 18 18 18 18 18 18 18 18 18 18 18
26 24 23 24 25 26 28 30 31 31 28 25 25 25 23 22 22 21 20 19 19 20 20 20 20 20 20 20 20 19 19 19 19 19 19 19 19 19 19 20 20 20
26 24 24 26 29 30 29 29 32 36 34 29 26 25 23 22 21 20 19 18 18 19 20 21 21 21 22 22 22 22 22 22 21 21 21 21 21 21 22 22 22 22
25 23 22 23 26 29 29 28 31 34 35 34 31 27 23 22 21 19 18 16 16 17 18 20 22 22 23 24 24 25 24 24 24 24 24 23 23 24 24 24 24 24
24 22 19 17 18 20 20 20 21 21 23 27 27 23 21 20 20 19 17 15 14 16 17 19 21 23 24 25 26 26 26 26 26 25 25 25 25 25 26 26 26 26
21 20 18 18 18 16 15 15 14 13 14 17 19 18 18 19 19 19 18 16 16 17 19 21 23 24 25 26 26 27 27 27 27 27 27 27 27 27 28 28 28 28
20 20 19 18 17 16 15 13 14 14 14 14 15 15 16 17 18 19 20 19 18 19 20 22 24 25 26 26 26 26 27 27 28 29 29 29 29 30 30 30 29 29
18 18 18 17 17 17 15 14 16 16 14 13 14 15 16 17 18 19 21 20 20 20 20 22 24 26 27 27 27 27 27 28 29 29 30 31 31 31 31 31 31 31
17 16 17 18 17 16 15 14 16 17 16 16 16 18 21 20 20 21 23 22 22 21 22 24 24 26 28 29 29 29 29 29 29 29 30 31 31 32 32 33 33 34
18 17 18 18 16 16 17 17 18 18 17 18 19 21 24 24 23 24 25 26 26 26 26 27 27 28 29 30 31 32 31 31 31 31 32 33 34 34 34 35 36 38
20 19 20 19 18 18 20 21 22 21 21 22 23 24 26 27 27 28 29 30 31 31 31 31 30 31 32 33 34 35 35 35 35 36 36 37 36 36 36 38 41 43
22 22 22 22 22 22 22 23 25 25 25 26 27 27 27 29 31 32 33 34 35 35 35 34 34 34 35 36 36 37 38 38 39 40 41 40 40 40 41 43 45 47
23 23 23 23 23 24 25 27 28 29 30 31 31 31 30 30 32 34 36 36 37 37 37 37 38 38 39 40 40 40 40 41 42 43 44 45 46 47 48 49 49 50
24 25 25 26 27 28 29 30 30 31 32 33 34 35 34 34 36 38 38 37 37 37 38 40 42 43 44 44 44 44 44 45 46 47 48 50 52 53 54 54 53 53
Wind_Direction
235 232 229 230 231 229 226 227 227 224 220 220 227 236 244 247 246 243 239 241 246 250 255 262 268 269 265 256 251 251 254 257 260 262 261 258 252 249 250 252 255 259
235 233 232 231 230 226 224 225 223 221 224 228 231 237 245 249 249 245 241 241 246 252 259 264 266 265 258 250 246 249 253 256 256 255 254 251 249 249 251 255 259 264
230 229 228 228 224 221 223 225 224 227 237 237 233 239 247 252 251 246 240 239 244 252 260 264 263 258 252 246 245 247 250 251 250 248 247 246 246 246 248 250 253 258
223 222 223 223 219 220 224 226 228 235 241 238 238 244 250 254 254 248 242 239 242 249 257 260 260 256 251 246 244 245 244 243 243 243 244 244 244 245 247 250 252 256
221 223 226 226 222 223 226 226 229 234 238 241 246 251 252 254 254 249 244 240 241 246 253 259 260 259 256 251 247 245 242 239 239 240 241 242 243 246 248 250 253 256
227 229 232 233 233 232 230 228 229 231 235 240 245 251 254 256 255 251 246 243 243 247 254 261 264 264 263 259 254 249 244 240 238 238 239 240 241 244 246 248 250 254
229 234 237 239 239 238 234 231 232 231 230 232 238 246 253 257 258 254 249 246 245 249 256 262 266 269 270 267 261 255 248 243 239 237 237 238 239 242 245 247 249 250
232 233 235 238 238 238 236 236 237 234 232 233 237 244 251 258 261 258 252 249 247 250 256 261 264 266 267 267 264 258 251 245 241 238 238 239 240 242 245 247 247 247
234 233 235 239 240 241 241 241 241 240 240 244 247 250 256 260 263 260 254 249 248 252 259 263 263 263 262 261 259 254 250 246 243 241 240 241 243 245 246 247 247 246
240 242 243 241 240 243 243 241 244 245 245 250 255 259 262 262 260 259 256 253 253 259 267 269 266 262 259 256 253 249 246 245 244 243 243 243 245 246 248 247 247 246
248 252 251 244 239 241 242 241 244 249 251 254 258 262 264 262 260 258 259 259 259 263 269 270 266 260 255 251 247 244 241 241 242 244 244 245 246 247 246 244 243 243
253 255 255 250 243 241 241 239 241 249 257 260 260 262 262 261 260 260 260 260 261 263 266 266 260 253 247 244 241 239 237 238 240 242 245 246 247 245 244 242 242 243
256 257 257 254 249 245 243 240 240 247 258 263 260 259 260 259 259 261 260 258 259 261 261 258 251 242 237 236 237 238 238 239 241 243 245 245 245 244 244 245 246 247
253 257 258 255 252 249 246 244 245 248 252 255 252 252 256 260 261 261 259 258 259 258 255 250 242 234 232 233 235 239 241 243 244 245 246 246 246 247 248 249 250 251
251 256 259 259 256 253 251 250 252 253 251 247 244 244 249 255 258 257 255 254 255 255 252 247 241 236 235 237 239 242 245 246 248 249 250 250 249 249 249 250 251 253
248 251 256 262 260 255 251 250 252 255 252 247 245 244 244 247 249 250 250 251 253 254 253 250 247 244 243 245 247 248 249 249 251 252 251 250 249 248 248 249 252 255
242 242 243 249 251 245 243 243 247 251 248 243 242 241 240 243 247 247 246 250 255 259 259 258 256 253 251 252 253 253 253 253 253 252 251 251 250 249 250 252 253 255
232 230 227 231 236 237 237 238 242 242 232 226 230 236 238 240 243 245 247 251 258 264 265 263 261 259 256 256 257 257 256 255 253 251 250 250 252 254 256 257 258 259
224 224 226 231 236 241 240 236 234 232 224 222 229 235 238 241 244 247 250 254 262 268 268 266 263 260 257 255 256 257 256 253 250 248 249 251 254 257 259 261 262 263
229 230 237 242 242 245 247 243 238 231 224 229 240 244 246 248 251 251 251 255 263 268 268 266 264 261 258 255 254 255 256 255 253 252 253 254 256 258 259 260 261 262
238 242 250 252 248 248 247 243 242 237 227 227 237 248 254 256 256 253 249 250 257 263 264 263 262 261 260 259 258 259 259 258 257 257 257 256 257 258 259 261 263 265
244 247 251 251 250 252 251 248 248 248 240 235 237 244 253 258 259 257 252 250 253 257 260 260 259 259 259 259 259 259 258 257 255 254 254 254 256 259 262 265 268 270
246 245 247 251 254 256 255 253 254 254 254 253 250 250 254 257 258 257 255 253 253 256 257 258 259 261 261 260 259 259 259 258 256 254 254 256 259 263 266 269 271 272
245 244 246 251 255 256 255 255 256 257 258 259 258 257 259 261 261 260 258 256 257 258 259 260 261 262 262 262 261 260 259 259 258 257 256 258 261 266 269 271 272 271
243 246 247 249 251 253 255 256 256 256 257 257 258 258 259 261 262 261 258 257 257 259 261 261 261 261 261 261 261 261 261 260 260 258 258 259 262 267 272 273 272 270
247 251 252 252 254 255 256 256 256 256 256 256 257 257 257 256 256 256 257 257 258 259 261 261 261 261 261 261 260 260 260 261 261 260 260 261 264 267 271 272 272 272